Time,TemperatureF,DewpointF,PressureIn,WindDirection,WindDirectionDegrees,WindSpeedMPH,WindSpeedGustMPH,Humidity,HourlyPrecipIn,Conditions,Clouds,dailyrainin,SoftwareType,DateUTC
2013-03-30 00:02:00,60.1,52.5,30.19,South,182,4.0,5.0,76,0.00,,,0.00,meteohub,2013-03-30 05:02:00,
2013-03-30 00:07:00,60.1,52.5,30.19,South,182,3.0,5.0,76,0.00,,,0.00,meteohub,2013-03-30 05:07:00,
2013-03-30 00:12:00,60.1,52.9,30.18,South,182,5.0,6.0,77,0.00,,,0.00,meteohub,2013-03-30 05:12:00,
2013-03-30 00:17:00,60.1,52.9,30.19,South,179,3.0,6.0,77,0.00,,,0.00,meteohub,2013-03-30 05:17:00,
2013-03-30 00:22:00,60.1,53.2,30.18,South,179,4.0,7.0,78,0.00,,,0.00,meteohub,2013-03-30 05:22:00,
2013-03-30 00:27:00,60.1,53.2,30.19,South,177,5.0,7.0,78,0.00,,,0.00,meteohub,2013-03-30 05:27:00,
2013-03-30 00:32:00,60.1,53.2,30.18,South,177,5.0,7.0,78,0.00,,,0.00,meteohub,2013-03-30 05:32:00,
2013-03-30 00:37:00,59.7,52.9,30.19,South,177,4.0,7.0,78,0.00,,,0.00,meteohub,2013-03-30 05:37:00,
2013-03-30 00:42:00,59.5,53.1,30.18,South,177,5.0,7.0,79,0.00,,,0.00,meteohub,2013-03-30 05:42:00,
2013-03-30 00:47:00,59.5,53.4,30.18,South,177,5.0,7.0,80,0.00,,,0.00,meteohub,2013-03-30 05:47:00,
2013-03-30 00:52:00,59.5,53.4,30.18,South,177,5.0,6.0,80,0.00,,,0.00,meteohub,2013-03-30 05:52:00,
2013-03-30 00:57:00,59.5,53.4,30.18,South,177,6.0,6.0,80,0.00,,,0.00,meteohub,2013-03-30 05:57:00,
2013-03-30 01:02:00,59.4,53.6,30.17,South,182,6.0,7.0,81,0.00,,,0.00,meteohub,2013-03-30 06:02:00,
2013-03-30 01:07:00,59.4,53.8,30.17,South,187,6.0,7.0,82,0.00,,,0.00,meteohub,2013-03-30 06:07:00,
2013-03-30 01:12:00,59.5,54.0,30.17,South,190,6.0,10.0,82,0.00,,,0.00,meteohub,2013-03-30 06:12:00,
2013-03-30 01:17:00,59.5,54.3,30.17,South,183,4.0,10.0,83,0.00,,,0.00,meteohub,2013-03-30 06:17:00,
2013-03-30 01:22:00,59.5,54.3,30.17,South,180,5.0,10.0,83,0.00,,,0.00,meteohub,2013-03-30 06:22:00,
2013-03-30 01:27:00,59.4,54.1,30.17,South,180,4.0,10.0,83,0.00,,,0.00,meteohub,2013-03-30 06:27:00,
2013-03-30 01:32:00,59.2,54.3,30.17,South,183,5.0,8.0,84,0.00,,,0.00,meteohub,2013-03-30 06:32:00,
2013-03-30 01:37:00,59.2,54.3,30.17,South,187,5.0,7.0,84,0.00,,,0.00,meteohub,2013-03-30 06:37:00,
2013-03-30 01:42:00,59.2,54.7,30.17,South,190,8.0,8.0,85,0.00,,,0.00,meteohub,2013-03-30 06:42:00,
2013-03-30 01:47:00,59.0,54.5,30.17,South,172,5.0,8.0,85,0.00,,,0.00,meteohub,2013-03-30 06:47:00,
2013-03-30 01:52:00,58.8,54.3,30.16,South,176,7.0,8.0,85,0.00,,,0.00,meteohub,2013-03-30 06:52:00,
2013-03-30 01:57:00,58.6,54.1,30.16,South,176,5.0,8.0,85,0.00,,,0.00,meteohub,2013-03-30 06:57:00,
2013-03-30 02:02:00,58.3,53.8,30.16,South,176,4.0,8.0,85,0.00,,,0.00,meteohub,2013-03-30 07:02:00,
2013-03-30 02:07:00,58.3,54.1,30.16,South,176,4.0,8.0,86,0.00,,,0.00,meteohub,2013-03-30 07:07:00,
2013-03-30 02:12:00,58.5,54.7,30.16,South,176,5.0,6.0,87,0.00,,,0.00,meteohub,2013-03-30 07:12:00,
2013-03-30 02:18:00,58.5,54.7,30.16,South,176,5.0,6.0,87,0.00,,,0.00,meteohub,2013-03-30 07:18:00,
2013-03-30 02:23:00,58.3,54.5,30.16,South,176,4.0,6.0,87,0.00,,,0.00,meteohub,2013-03-30 07:23:00,
2013-03-30 02:28:00,58.3,54.5,30.16,South,176,2.0,6.0,87,0.00,,,0.00,meteohub,2013-03-30 07:28:00,
2013-03-30 02:33:00,57.9,54.1,30.16,South,176,0.0,6.0,87,0.00,,,0.00,meteohub,2013-03-30 07:33:00,
2013-03-30 02:38:00,57.7,54.0,30.16,South,176,2.0,6.0,87,0.00,,,0.00,meteohub,2013-03-30 07:38:00,
2013-03-30 02:43:00,57.6,53.8,30.15,SSE,160,2.0,5.0,87,0.00,,,0.00,meteohub,2013-03-30 07:43:00,
2013-03-30 02:48:00,57.6,54.0,30.15,SSE,160,1.0,3.0,88,0.00,,,0.00,meteohub,2013-03-30 07:48:00,
2013-03-30 02:53:00,57.6,54.0,30.15,SE,145,4.0,4.0,88,0.00,,,0.00,meteohub,2013-03-30 07:53:00,
2013-03-30 02:58:00,57.7,54.1,30.14,SE,144,3.0,4.0,88,0.00,,,0.00,meteohub,2013-03-30 07:58:00,
2013-03-30 03:03:00,57.7,54.1,30.14,SE,142,3.0,4.0,88,0.00,,,0.00,meteohub,2013-03-30 08:03:00,
2013-03-30 03:08:00,57.9,54.3,30.14,SE,142,1.0,4.0,88,0.00,,,0.00,meteohub,2013-03-30 08:08:00,
2013-03-30 03:13:00,57.9,54.3,30.14,SE,142,1.0,4.0,88,0.00,,,0.00,meteohub,2013-03-30 08:13:00,
2013-03-30 03:18:00,57.9,54.3,30.14,SE,142,2.0,4.0,88,0.00,,,0.00,meteohub,2013-03-30 08:18:00,
2013-03-30 03:23:00,57.9,54.3,30.14,SE,142,0.0,4.0,88,0.00,,,0.00,meteohub,2013-03-30 08:23:00,
2013-03-30 03:28:00,57.9,54.3,30.14,SE,142,0.0,4.0,88,0.00,,,0.00,meteohub,2013-03-30 08:28:00,
2013-03-30 03:33:00,57.9,54.3,30.14,SE,142,0.0,3.0,88,0.00,,,0.00,meteohub,2013-03-30 08:33:00,
2013-03-30 03:38:00,57.9,54.3,30.14,SE,142,0.0,2.0,88,0.00,,,0.00,meteohub,2013-03-30 08:38:00,
2013-03-30 03:43:00,57.9,54.3,30.14,SE,142,2.0,0.0,88,0.00,,,0.00,meteohub,2013-03-30 08:43:00,
2013-03-30 03:48:00,57.7,54.1,30.14,SE,142,3.0,0.0,88,0.00,,,0.00,meteohub,2013-03-30 08:48:00,
2013-03-30 03:53:00,57.7,54.1,30.14,SE,144,4.0,4.0,88,0.00,,,0.00,meteohub,2013-03-30 08:53:00,
2013-03-30 03:58:00,57.7,54.1,30.14,SE,144,3.0,5.0,88,0.00,,,0.00,meteohub,2013-03-30 08:58:00,
2013-03-30 04:03:00,57.6,54.3,30.14,SE,144,4.0,5.0,89,0.00,,,0.00,meteohub,2013-03-30 09:03:00,
2013-03-30 04:08:00,57.6,54.3,30.14,SE,144,3.0,5.0,89,0.00,,,0.00,meteohub,2013-03-30 09:08:00,
2013-03-30 04:13:00,57.6,54.3,30.14,SE,144,2.0,4.0,89,0.00,,,0.00,meteohub,2013-03-30 09:13:00,
2013-03-30 04:18:00,57.4,54.1,30.14,SE,144,3.0,4.0,89,0.00,,,0.00,meteohub,2013-03-30 09:18:00,
2013-03-30 04:23:00,57.4,54.1,30.14,SE,144,3.0,4.0,89,0.00,,,0.00,meteohub,2013-03-30 09:23:00,
2013-03-30 04:28:00,57.4,54.1,30.13,SE,143,2.0,4.0,89,0.00,,,0.00,meteohub,2013-03-30 09:28:00,
2013-03-30 04:33:00,57.4,54.1,30.13,SE,144,1.0,4.0,89,0.00,,,0.00,meteohub,2013-03-30 09:33:00,
2013-03-30 04:34:00,57.4,54.1,30.13,SE,143,2.0,4.0,89,0.00,,,0.00,meteohub,2013-03-30 09:34:00,
2013-03-30 04:39:00,57.4,54.1,30.13,SE,143,3.0,4.0,89,0.00,,,0.00,meteohub,2013-03-30 09:39:00,
2013-03-30 04:44:00,57.4,54.5,30.13,SE,143,3.0,4.0,90,0.00,,,0.00,meteohub,2013-03-30 09:44:00,
2013-03-30 04:49:00,57.0,54.1,30.13,SE,143,1.0,4.0,90,0.00,,,0.00,meteohub,2013-03-30 09:49:00,
2013-03-30 04:54:00,56.8,54.0,30.13,ESE,117,4.0,4.0,90,0.00,,,0.00,meteohub,2013-03-30 09:54:00,
2013-03-30 04:59:00,56.8,54.0,30.13,ESE,116,4.0,5.0,90,0.00,,,0.00,meteohub,2013-03-30 09:59:00,
2013-03-30 05:04:00,56.8,54.0,30.13,ESE,116,5.0,6.0,90,0.00,,,0.00,meteohub,2013-03-30 10:04:00,
2013-03-30 05:09:00,56.8,54.0,30.12,ESE,117,4.0,6.0,90,0.00,,,0.00,meteohub,2013-03-30 10:09:00,
2013-03-30 05:14:00,56.8,54.0,30.13,ESE,117,5.0,6.0,90,0.00,,,0.00,meteohub,2013-03-30 10:14:00,
2013-03-30 05:19:00,56.8,54.0,30.13,ESE,117,4.0,5.0,90,0.00,,,0.00,meteohub,2013-03-30 10:19:00,
2013-03-30 05:24:00,56.8,54.0,30.12,ESE,117,6.0,6.0,90,0.00,,,0.00,meteohub,2013-03-30 10:24:00,
2013-03-30 05:29:00,56.8,54.0,30.12,ESE,115,6.0,6.0,90,0.00,,,0.00,meteohub,2013-03-30 10:29:00,
2013-03-30 05:34:00,56.8,54.0,30.12,ESE,113,7.0,7.0,90,0.00,,,0.00,meteohub,2013-03-30 10:34:00,
2013-03-30 05:39:00,56.8,54.0,30.12,ESE,114,5.0,7.0,90,0.00,,,0.00,meteohub,2013-03-30 10:39:00,
2013-03-30 05:44:00,57.0,54.1,30.12,SE,127,2.0,7.0,90,0.00,,,0.00,meteohub,2013-03-30 10:44:00,
2013-03-30 05:49:00,56.8,54.0,30.12,SE,127,4.0,7.0,90,0.00,,,0.00,meteohub,2013-03-30 10:49:00,
2013-03-30 05:54:00,56.8,54.0,30.12,SE,129,2.0,7.0,90,0.00,,,0.00,meteohub,2013-03-30 10:54:00,
2013-03-30 05:59:00,57.0,54.1,30.12,SE,133,2.0,6.0,90,0.00,,,0.00,meteohub,2013-03-30 10:59:00,
2013-03-30 06:04:00,57.0,54.1,30.12,ESE,119,5.0,6.0,90,0.00,,,0.00,meteohub,2013-03-30 11:04:00,
2013-03-30 06:09:00,57.0,54.1,30.12,ESE,121,2.0,6.0,90,0.00,,,0.00,meteohub,2013-03-30 11:09:00,
2013-03-30 06:14:00,57.0,54.5,30.12,ESE,121,1.0,6.0,91,0.00,,,0.00,meteohub,2013-03-30 11:14:00,
2013-03-30 06:19:00,57.0,54.5,30.12,SE,138,2.0,6.0,91,0.00,,,0.00,meteohub,2013-03-30 11:19:00,
2013-03-30 06:24:00,57.0,54.1,30.12,SE,135,4.0,5.0,90,0.00,,,0.00,meteohub,2013-03-30 11:24:00,
2013-03-30 06:29:00,57.0,54.1,30.12,SE,133,2.0,6.0,90,0.00,,,0.00,meteohub,2013-03-30 11:29:00,
2013-03-30 06:34:00,57.0,54.1,30.12,SE,131,0.0,6.0,90,0.00,,,0.00,meteohub,2013-03-30 11:34:00,
2013-03-30 06:39:00,56.8,54.0,30.12,SE,131,0.0,7.0,90,0.00,,,0.00,meteohub,2013-03-30 11:39:00,
2013-03-30 06:44:00,56.8,54.0,30.12,SE,131,2.0,7.0,90,0.00,,,0.00,meteohub,2013-03-30 11:44:00,
2013-03-30 06:49:00,57.0,54.1,30.13,SE,131,2.0,5.0,90,0.00,,,0.00,meteohub,2013-03-30 11:49:00,
2013-03-30 06:54:00,56.8,54.0,30.13,SE,131,1.0,6.0,90,0.00,,,0.00,meteohub,2013-03-30 11:54:00,
2013-03-30 06:59:00,56.8,54.0,30.13,SE,131,4.0,6.0,90,0.00,,,0.00,meteohub,2013-03-30 11:59:00,
2013-03-30 07:04:00,56.8,54.0,30.13,SE,131,5.0,6.0,90,0.00,,,0.00,meteohub,2013-03-30 12:04:00,
2013-03-30 07:09:00,56.8,54.0,30.14,SE,126,5.0,5.0,90,0.00,,,0.00,meteohub,2013-03-30 12:09:00,
2013-03-30 07:14:00,56.8,54.0,30.14,ESE,114,5.0,7.0,90,0.00,,,0.00,meteohub,2013-03-30 12:14:00,
2013-03-30 07:19:00,56.8,54.0,30.14,ESE,108,4.0,7.0,90,0.00,,,0.00,meteohub,2013-03-30 12:19:00,
2013-03-30 07:25:00,56.7,54.1,30.14,ESE,106,4.0,7.0,91,0.00,,,0.00,meteohub,2013-03-30 12:25:00,
2013-03-30 07:30:00,56.8,54.3,30.14,East,90,4.0,6.0,91,0.00,,,0.00,meteohub,2013-03-30 12:30:00,
2013-03-30 07:35:00,56.8,54.0,30.14,East,90,5.0,6.0,90,0.00,,,0.00,meteohub,2013-03-30 12:35:00,
2013-03-30 07:40:00,56.8,54.0,30.14,ESE,104,4.0,6.0,90,0.00,,,0.00,meteohub,2013-03-30 12:40:00,
2013-03-30 07:45:00,57.0,54.5,30.14,ESE,114,4.0,6.0,91,0.00,,,0.00,meteohub,2013-03-30 12:45:00,
2013-03-30 07:50:00,57.2,54.7,30.14,ESE,120,4.0,6.0,91,0.00,,,0.00,meteohub,2013-03-30 12:50:00,
2013-03-30 07:55:00,57.6,55.0,30.14,ESE,120,4.0,6.0,91,0.00,,,0.00,meteohub,2013-03-30 12:55:00,
2013-03-30 08:00:00,57.6,54.7,30.14,SE,141,4.0,6.0,90,0.00,,,0.00,meteohub,2013-03-30 13:00:00,
2013-03-30 08:05:00,57.7,54.9,30.15,SE,142,3.0,5.0,90,0.00,,,0.00,meteohub,2013-03-30 13:05:00,
2013-03-30 08:10:00,57.9,55.0,30.15,SE,143,3.0,6.0,90,0.00,,,0.00,meteohub,2013-03-30 13:10:00,
2013-03-30 08:15:00,57.9,55.0,30.15,SE,143,4.0,6.0,90,0.00,,,0.00,meteohub,2013-03-30 13:15:00,
2013-03-30 08:20:00,57.9,54.7,30.14,SE,140,5.0,5.0,89,0.00,,,0.00,meteohub,2013-03-30 13:20:00,
2013-03-30 08:25:00,58.3,55.0,30.14,SE,143,4.0,5.0,89,0.00,,,0.00,meteohub,2013-03-30 13:25:00,
2013-03-30 08:30:00,58.3,55.0,30.14,SE,140,4.0,7.0,89,0.00,,,0.00,meteohub,2013-03-30 13:30:00,
2013-03-30 08:35:00,58.6,55.4,30.14,SE,138,5.0,9.0,89,0.00,,,0.00,meteohub,2013-03-30 13:35:00,
2013-03-30 08:40:00,59.4,55.8,30.14,SSE,154,9.0,10.0,88,0.00,,,0.00,meteohub,2013-03-30 13:40:00,
2013-03-30 08:45:00,59.5,55.9,30.14,SSE,168,10.0,10.0,88,0.00,,,0.00,meteohub,2013-03-30 13:45:00,
2013-03-30 08:50:00,59.5,55.6,30.15,South,170,11.0,12.0,87,0.00,,,0.00,meteohub,2013-03-30 13:50:00,
2013-03-30 08:55:00,59.5,55.6,30.15,South,171,9.0,12.0,87,0.00,,,0.00,meteohub,2013-03-30 13:55:00,
2013-03-30 09:00:00,59.5,55.9,30.16,South,178,8.0,12.0,88,0.00,,,0.00,meteohub,2013-03-30 14:00:00,
2013-03-30 09:05:00,59.9,56.3,30.16,South,187,3.0,12.0,88,0.00,,,0.00,meteohub,2013-03-30 14:05:00,
2013-03-30 09:10:00,60.3,56.7,30.17,South,188,5.0,10.0,88,0.00,,,0.00,meteohub,2013-03-30 14:10:00,
2013-03-30 09:15:00,60.8,56.8,30.17,SSW,194,3.0,8.0,87,0.00,,,0.00,meteohub,2013-03-30 14:15:00,
2013-03-30 09:20:00,61.2,57.2,30.18,SSW,211,4.0,6.0,87,0.00,,,0.00,meteohub,2013-03-30 14:20:00,
2013-03-30 09:25:00,61.7,57.4,30.18,SSW,211,3.0,6.0,86,0.00,,,0.00,meteohub,2013-03-30 14:25:00,
2013-03-30 09:30:00,62.1,57.6,30.18,SSW,194,4.0,6.0,85,0.00,,,0.00,meteohub,2013-03-30 14:30:00,
2013-03-30 09:35:00,62.4,57.9,30.18,SSW,198,4.0,6.0,85,0.00,,,0.00,meteohub,2013-03-30 14:35:00,
2013-03-30 09:40:00,63.0,58.1,30.18,SSE,167,2.0,6.0,84,0.00,,,0.00,meteohub,2013-03-30 14:40:00,
2013-03-30 09:45:00,63.0,57.7,30.18,SSE,148,4.0,5.0,83,0.00,,,0.00,meteohub,2013-03-30 14:45:00,
2013-03-30 09:50:00,63.0,57.7,30.17,South,169,6.0,7.0,83,0.00,,,0.00,meteohub,2013-03-30 14:50:00,
2013-03-30 09:55:00,63.0,58.1,30.17,South,174,6.0,8.0,84,0.00,,,0.00,meteohub,2013-03-30 14:55:00,
2013-03-30 10:00:00,63.3,58.1,30.17,South,175,7.0,8.0,83,0.00,,,0.00,meteohub,2013-03-30 15:00:00,
2013-03-30 10:05:00,63.9,58.6,30.17,South,171,6.0,9.0,83,0.00,,,0.00,meteohub,2013-03-30 15:05:00,
2013-03-30 10:10:00,64.2,58.6,30.17,South,182,5.0,9.0,82,0.00,,,0.00,meteohub,2013-03-30 15:10:00,
2013-03-30 10:16:00,64.6,58.6,30.17,South,190,6.0,10.0,81,0.00,,,0.00,meteohub,2013-03-30 15:16:00,
2013-03-30 10:21:00,65.1,59.2,30.17,South,183,4.0,10.0,81,0.00,,,0.00,meteohub,2013-03-30 15:21:00,
2013-03-30 10:26:00,66.0,59.4,30.17,South,187,8.0,17.0,79,0.00,,,0.00,meteohub,2013-03-30 15:26:00,
2013-03-30 10:31:00,66.7,59.4,30.17,SSW,199,7.0,17.0,77,0.00,,,0.00,meteohub,2013-03-30 15:31:00,
2013-03-30 10:36:00,67.1,59.4,30.18,SSW,210,12.0,17.0,76,0.00,,,0.00,meteohub,2013-03-30 15:36:00,
2013-03-30 10:41:00,67.3,59.5,30.17,SSW,200,11.0,15.0,76,0.00,,,0.00,meteohub,2013-03-30 15:41:00,
2013-03-30 10:46:00,67.5,59.5,30.17,SSW,202,10.0,15.0,76,0.00,,,0.00,meteohub,2013-03-30 15:46:00,
2013-03-30 10:51:00,67.8,59.5,30.17,SSW,196,7.0,14.0,75,0.00,,,0.00,meteohub,2013-03-30 15:51:00,
2013-03-30 10:56:00,67.8,59.2,30.17,South,190,11.0,17.0,74,0.00,,,0.00,meteohub,2013-03-30 15:56:00,
2013-03-30 11:01:00,68.0,59.4,30.16,South,177,11.0,17.0,74,0.00,,,0.00,meteohub,2013-03-30 16:01:00,
2013-03-30 11:06:00,68.2,59.2,30.16,South,180,9.0,17.0,73,0.00,,,0.00,meteohub,2013-03-30 16:06:00,
2013-03-30 11:11:00,68.4,59.0,30.16,South,186,8.0,17.0,72,0.00,,,0.00,meteohub,2013-03-30 16:11:00,
2013-03-30 11:16:00,68.2,58.8,30.16,South,187,11.0,17.0,72,0.00,,,0.00,meteohub,2013-03-30 16:16:00,
2013-03-30 11:21:00,68.2,58.8,30.16,South,181,8.0,17.0,72,0.00,,,0.00,meteohub,2013-03-30 16:21:00,
2013-03-30 11:27:00,68.2,58.5,30.16,South,178,7.0,17.0,71,0.00,,,0.00,meteohub,2013-03-30 16:27:00,
2013-03-30 11:32:00,68.4,59.0,30.16,SSW,198,7.0,14.0,72,0.00,,,0.00,meteohub,2013-03-30 16:32:00,
2013-03-30 11:37:00,68.5,58.8,30.15,South,183,6.0,14.0,71,0.00,,,0.00,meteohub,2013-03-30 16:37:00,
2013-03-30 11:42:00,68.5,58.8,30.15,South,185,5.0,14.0,71,0.00,,,0.00,meteohub,2013-03-30 16:42:00,
2013-03-30 11:47:00,68.7,58.1,30.15,SSW,209,7.0,12.0,69,0.00,,,0.00,meteohub,2013-03-30 16:47:00,
2013-03-30 11:52:00,69.1,58.8,30.15,SSW,206,4.0,12.0,70,0.00,,,0.00,meteohub,2013-03-30 16:52:00,
2013-03-30 11:57:00,69.3,59.0,30.15,South,178,8.0,12.0,70,0.00,,,0.00,meteohub,2013-03-30 16:57:00,
2013-03-30 12:02:00,69.1,58.5,30.15,SSW,201,7.0,11.0,69,0.00,,,0.00,meteohub,2013-03-30 17:02:00,
2013-03-30 12:07:00,69.4,59.2,30.14,SW,219,8.0,13.0,70,0.00,,,0.00,meteohub,2013-03-30 17:07:00,
2013-03-30 12:12:00,70.2,60.3,30.14,SW,217,7.0,14.0,71,0.00,,,0.00,meteohub,2013-03-30 17:12:00,
2013-03-30 12:17:00,70.5,59.9,30.14,South,187,14.0,14.0,69,0.00,,,0.00,meteohub,2013-03-30 17:17:00,
2013-03-30 12:22:00,70.2,59.5,30.14,South,189,8.0,14.0,69,0.00,,,0.00,meteohub,2013-03-30 17:22:00,
2013-03-30 12:27:00,69.3,58.6,30.13,South,177,11.0,14.0,69,0.00,,,0.00,meteohub,2013-03-30 17:27:00,
2013-03-30 12:32:00,69.3,58.6,30.14,South,184,10.0,16.0,69,0.00,,,0.00,meteohub,2013-03-30 17:32:00,
2013-03-30 12:37:00,70.0,58.1,30.13,SSW,194,8.0,17.0,66,0.00,,,0.00,meteohub,2013-03-30 17:37:00,
2013-03-30 12:42:00,70.2,59.2,30.13,SSW,208,10.0,18.0,68,0.00,,,0.00,meteohub,2013-03-30 17:42:00,
2013-03-30 12:47:00,70.0,59.0,30.13,South,175,13.0,18.0,68,0.00,,,0.00,meteohub,2013-03-30 17:47:00,
2013-03-30 12:52:00,70.0,59.0,30.12,South,169,12.0,18.0,68,0.00,,,0.00,meteohub,2013-03-30 17:52:00,
2013-03-30 12:57:00,69.4,57.9,30.12,South,180,13.0,16.0,67,0.00,,,0.00,meteohub,2013-03-30 17:57:00,
2013-03-30 13:02:00,69.4,58.5,30.12,South,179,10.0,17.0,68,0.00,,,0.00,meteohub,2013-03-30 18:02:00,
2013-03-30 13:07:00,69.4,57.9,30.12,South,178,9.0,17.0,67,0.00,,,0.00,meteohub,2013-03-30 18:07:00,
2013-03-30 13:12:00,69.4,58.5,30.12,South,178,11.0,17.0,68,0.00,,,0.00,meteohub,2013-03-30 18:12:00,
2013-03-30 13:17:00,69.3,58.3,30.12,South,179,11.0,16.0,68,0.00,,,0.00,meteohub,2013-03-30 18:17:00,
2013-03-30 13:22:00,69.3,58.6,30.11,South,177,9.0,17.0,69,0.00,,,0.00,meteohub,2013-03-30 18:22:00,
2013-03-30 13:27:00,69.3,58.3,30.11,South,181,10.0,17.0,68,0.00,,,0.00,meteohub,2013-03-30 18:27:00,
2013-03-30 13:32:00,68.9,57.9,30.09,South,175,16.0,16.0,68,0.00,,,0.00,meteohub,2013-03-30 18:32:00,
2013-03-30 13:37:00,67.8,57.2,30.09,South,189,11.0,18.0,69,0.00,,,0.00,meteohub,2013-03-30 18:37:00,
2013-03-30 13:42:00,68.2,58.1,30.08,South,177,6.0,21.0,70,0.00,,,0.00,meteohub,2013-03-30 18:42:00,
2013-03-30 13:47:00,67.8,57.7,30.08,SSE,150,12.0,21.0,70,0.00,,,0.00,meteohub,2013-03-30 18:47:00,
2013-03-30 13:52:00,68.4,57.7,30.07,SSE,158,12.0,20.0,69,0.00,,,0.00,meteohub,2013-03-30 18:52:00,
2013-03-30 13:57:00,67.8,57.7,30.08,SSE,167,16.0,19.0,70,0.00,,,0.00,meteohub,2013-03-30 18:57:00,
2013-03-30 14:03:00,68.2,58.1,30.07,South,183,12.0,19.0,70,0.00,,,0.00,meteohub,2013-03-30 19:03:00,
2013-03-30 14:08:00,68.4,57.7,30.07,South,175,13.0,19.0,69,0.00,,,0.00,meteohub,2013-03-30 19:08:00,
2013-03-30 14:13:00,68.9,57.9,30.07,South,177,8.0,19.0,68,0.00,,,0.00,meteohub,2013-03-30 19:13:00,
2013-03-30 14:18:00,69.3,58.3,30.07,South,169,11.0,18.0,68,0.00,,,0.00,meteohub,2013-03-30 19:18:00,
2013-03-30 14:23:00,68.7,57.4,30.07,SSW,193,6.0,18.0,67,0.00,,,0.00,meteohub,2013-03-30 19:23:00,
2013-03-30 14:28:00,69.8,58.8,30.06,South,179,8.0,18.0,68,0.00,,,0.00,meteohub,2013-03-30 19:28:00,
2013-03-30 14:33:00,70.3,58.1,30.06,South,178,14.0,18.0,65,0.00,,,0.00,meteohub,2013-03-30 19:33:00,
2013-03-30 14:38:00,70.5,57.7,30.06,SSW,198,8.0,19.0,64,0.00,,,0.00,meteohub,2013-03-30 19:38:00,
2013-03-30 14:43:00,71.2,58.5,30.06,South,187,16.0,20.0,64,0.00,,,0.00,meteohub,2013-03-30 19:43:00,
2013-03-30 14:48:00,71.4,58.6,30.06,SSW,198,14.0,20.0,64,0.00,,,0.00,meteohub,2013-03-30 19:48:00,
2013-03-30 14:53:00,71.8,58.5,30.06,SSW,198,12.0,20.0,63,0.00,,,0.00,meteohub,2013-03-30 19:53:00,
2013-03-30 14:58:00,72.0,58.6,30.06,SSW,197,8.0,18.0,63,0.00,,,0.00,meteohub,2013-03-30 19:58:00,
2013-03-30 15:03:00,71.8,58.5,30.06,SSW,195,8.0,17.0,63,0.00,,,0.00,meteohub,2013-03-30 20:03:00,
2013-03-30 15:08:00,72.0,57.4,30.06,South,179,10.0,17.0,60,0.00,,,0.00,meteohub,2013-03-30 20:08:00,
2013-03-30 15:13:00,72.3,57.2,30.05,South,187,10.0,17.0,59,0.00,,,0.00,meteohub,2013-03-30 20:13:00,
2013-03-30 15:18:00,72.3,57.2,30.05,South,188,11.0,19.0,59,0.00,,,0.00,meteohub,2013-03-30 20:18:00,
2013-03-30 15:23:00,72.1,57.6,30.05,South,190,10.0,20.0,60,0.00,,,0.00,meteohub,2013-03-30 20:23:00,
2013-03-30 15:28:00,72.3,57.2,30.05,SW,215,14.0,20.0,59,0.00,,,0.00,meteohub,2013-03-30 20:28:00,
2013-03-30 15:33:00,72.7,57.6,30.04,SW,216,13.0,20.0,59,0.00,,,0.00,meteohub,2013-03-30 20:33:00,
2013-03-30 15:38:00,72.3,57.2,30.04,South,187,12.0,19.0,59,0.00,,,0.00,meteohub,2013-03-30 20:38:00,
2013-03-30 15:43:00,72.3,57.7,30.04,SSW,192,13.0,19.0,60,0.00,,,0.00,meteohub,2013-03-30 20:43:00,
2013-03-30 15:48:00,72.1,57.0,30.03,SSW,201,15.0,20.0,59,0.00,,,0.00,meteohub,2013-03-30 20:48:00,
2013-03-30 15:53:00,72.3,57.7,30.03,South,186,11.0,22.0,60,0.00,,,0.00,meteohub,2013-03-30 20:53:00,
2013-03-30 15:58:00,72.3,57.7,30.02,South,185,10.0,22.0,60,0.00,,,0.00,meteohub,2013-03-30 20:58:00,
2013-03-30 16:03:00,72.5,57.7,30.03,SSW,205,17.0,22.0,60,0.00,,,0.00,meteohub,2013-03-30 21:03:00,
2013-03-30 16:08:00,72.7,57.0,30.02,South,190,14.0,18.0,58,0.00,,,0.00,meteohub,2013-03-30 21:08:00,
2013-03-30 16:13:00,72.7,57.6,30.02,SSW,202,19.0,21.0,59,0.00,,,0.00,meteohub,2013-03-30 21:13:00,
2013-03-30 16:18:00,72.7,57.0,30.02,SSW,198,17.0,22.0,58,0.00,,,0.00,meteohub,2013-03-30 21:18:00,
2013-03-30 16:23:00,72.7,57.0,30.02,SSW,194,8.0,22.0,58,0.00,,,0.00,meteohub,2013-03-30 21:23:00,
2013-03-30 16:28:00,72.7,57.6,30.02,SSW,200,18.0,22.0,59,0.00,,,0.00,meteohub,2013-03-30 21:28:00,
2013-03-30 16:33:00,72.3,57.2,30.03,SSW,204,15.0,19.0,59,0.00,,,0.00,meteohub,2013-03-30 21:33:00,
2013-03-30 16:38:00,72.1,57.0,30.03,South,185,5.0,20.0,59,0.00,,,0.00,meteohub,2013-03-30 21:38:00,
2013-03-30 16:43:00,72.0,57.4,30.03,SSW,203,13.0,20.0,60,0.00,,,0.00,meteohub,2013-03-30 21:43:00,
2013-03-30 16:48:00,71.8,58.1,30.04,SSW,193,8.0,15.0,62,0.00,,,0.00,meteohub,2013-03-30 21:48:00,
2013-03-30 16:53:00,71.8,57.2,30.04,SSW,197,10.0,15.0,60,0.00,,,0.00,meteohub,2013-03-30 21:53:00,
2013-03-30 16:58:00,72.0,57.4,30.04,SSW,200,11.0,15.0,60,0.00,,,0.00,meteohub,2013-03-30 21:58:00,
2013-03-30 17:03:00,72.3,56.7,30.04,SSW,204,15.0,15.0,58,0.00,,,0.00,meteohub,2013-03-30 22:03:00,
2013-03-30 17:08:00,72.3,57.2,30.04,SSW,202,8.0,19.0,59,0.00,,,0.00,meteohub,2013-03-30 22:08:00,
2013-03-30 17:13:00,72.1,57.0,30.04,SSW,204,8.0,21.0,59,0.00,,,0.00,meteohub,2013-03-30 22:13:00,
2013-03-30 17:19:00,71.8,57.6,30.03,SSW,197,10.0,21.0,61,0.00,,,0.00,meteohub,2013-03-30 22:19:00,
2013-03-30 17:24:00,71.4,57.2,30.03,SSW,196,13.0,18.0,61,0.00,,,0.00,meteohub,2013-03-30 22:24:00,
2013-03-30 17:29:00,71.8,57.6,30.03,SSW,200,18.0,20.0,61,0.00,,,0.00,meteohub,2013-03-30 22:29:00,
2013-03-30 17:34:00,72.1,57.0,30.03,WSW,243,19.0,20.0,59,0.00,,,0.00,meteohub,2013-03-30 22:34:00,
2013-03-30 17:39:00,72.1,57.6,30.03,SW,223,14.0,22.0,60,0.00,,,0.00,meteohub,2013-03-30 22:39:00,
2013-03-30 17:44:00,72.0,57.4,30.03,SSW,202,18.0,25.0,60,0.00,,,0.00,meteohub,2013-03-30 22:44:00,
2013-03-30 17:49:00,71.8,57.6,30.04,SSW,204,14.0,25.0,61,0.00,,,0.00,meteohub,2013-03-30 22:49:00,
2013-03-30 17:54:00,72.0,56.8,30.04,SW,219,19.0,25.0,59,0.00,,,0.00,meteohub,2013-03-30 22:54:00,
2013-03-30 17:59:00,71.8,57.2,30.04,SW,222,12.0,22.0,60,0.00,,,0.00,meteohub,2013-03-30 22:59:00,
2013-03-30 18:04:00,71.8,57.2,30.04,SW,227,15.0,22.0,60,0.00,,,0.00,meteohub,2013-03-30 23:04:00,
2013-03-30 18:09:00,71.8,56.7,30.04,SW,225,13.0,24.0,59,0.00,,,0.00,meteohub,2013-03-30 23:09:00,
2013-03-30 18:14:00,71.6,57.4,30.04,SW,214,8.0,24.0,61,0.00,,,0.00,meteohub,2013-03-30 23:14:00,
2013-03-30 18:19:00,71.2,57.6,30.05,WSW,239,14.0,24.0,62,0.00,,,0.00,meteohub,2013-03-30 23:19:00,
2013-03-30 18:24:00,71.1,57.4,30.05,WSW,249,11.0,25.0,62,0.00,,,0.00,meteohub,2013-03-30 23:24:00,
2013-03-30 18:29:00,70.9,57.7,30.04,SSW,208,11.0,25.0,63,0.00,,,0.00,meteohub,2013-03-30 23:29:00,
2013-03-30 18:34:00,70.9,57.2,30.04,WSW,243,13.0,25.0,62,0.00,,,0.00,meteohub,2013-03-30 23:34:00,
2013-03-30 18:39:00,71.1,57.4,30.04,SW,214,13.0,20.0,62,0.00,,,0.00,meteohub,2013-03-30 23:39:00,
2013-03-30 18:44:00,70.9,57.7,30.03,SSW,199,12.0,19.0,63,0.00,,,0.00,meteohub,2013-03-30 23:44:00,
2013-03-30 18:49:00,70.5,57.7,30.03,South,183,14.0,19.0,64,0.00,,,0.00,meteohub,2013-03-30 23:49:00,
2013-03-30 18:54:00,70.3,58.1,30.03,SSW,194,6.0,18.0,65,0.00,,,0.00,meteohub,2013-03-30 23:54:00,
2013-03-30 18:59:00,70.0,58.1,30.03,South,186,6.0,18.0,66,0.00,,,0.00,meteohub,2013-03-30 23:59:00,
2013-03-30 19:04:00,69.6,57.7,30.03,South,180,9.0,15.0,66,0.00,,,0.00,meteohub,2013-03-31 00:04:00,
2013-03-30 19:09:00,69.3,57.9,30.03,SSW,196,12.0,15.0,67,0.00,,,0.00,meteohub,2013-03-31 00:09:00,
2013-03-30 19:14:00,69.1,58.1,30.03,SSW,193,11.0,14.0,68,0.00,,,0.00,meteohub,2013-03-31 00:14:00,
2013-03-30 19:19:00,68.7,57.7,30.02,SSW,200,10.0,14.0,68,0.00,,,0.00,meteohub,2013-03-31 00:19:00,
2013-03-30 19:24:00,68.4,57.7,30.02,SSW,197,12.0,14.0,69,0.00,,,0.00,meteohub,2013-03-31 00:24:00,
2013-03-30 19:29:00,68.0,57.9,30.02,SSW,195,8.0,14.0,70,0.00,,,0.00,meteohub,2013-03-31 00:29:00,
2013-03-30 19:34:00,67.8,57.7,30.03,SSW,204,7.0,13.0,70,0.00,,,0.00,meteohub,2013-03-31 00:34:00,
2013-03-30 19:39:00,67.6,57.9,30.03,SW,214,6.0,13.0,71,0.00,,,0.00,meteohub,2013-03-31 00:39:00,
2013-03-30 19:44:00,67.3,57.9,30.04,SSW,203,7.0,12.0,72,0.00,,,0.00,meteohub,2013-03-31 00:44:00,
2013-03-30 19:49:00,67.1,57.7,30.02,SSW,192,11.0,12.0,72,0.00,,,0.00,meteohub,2013-03-31 00:49:00,
2013-03-30 19:54:00,67.1,58.1,30.01,SSW,199,8.0,12.0,73,0.00,,,0.00,meteohub,2013-03-31 00:54:00,
2013-03-30 19:59:00,66.9,57.9,30.01,SSW,192,7.0,13.0,73,0.00,,,0.00,meteohub,2013-03-31 00:59:00,
2013-03-30 20:04:00,66.7,58.1,30.01,South,188,7.0,13.0,74,0.00,,,0.00,meteohub,2013-03-31 01:04:00,
2013-03-30 20:09:00,66.7,58.1,30.01,South,188,10.0,13.0,74,0.00,,,0.00,meteohub,2013-03-31 01:09:00,
2013-03-30 20:14:00,66.6,58.5,30.01,SSW,199,8.0,13.0,75,0.00,,,0.00,meteohub,2013-03-31 01:14:00,
2013-03-30 20:19:00,66.2,58.1,30.02,SSW,193,7.0,18.0,75,0.00,,,0.00,meteohub,2013-03-31 01:19:00,
2013-03-30 20:24:00,66.2,58.5,30.01,SSW,198,8.0,18.0,76,0.00,,,0.00,meteohub,2013-03-31 01:24:00,
2013-03-30 20:29:00,66.2,58.5,30.01,SSW,196,12.0,18.0,76,0.00,,,0.00,meteohub,2013-03-31 01:29:00,
2013-03-30 20:34:00,66.2,58.5,30.02,SSW,201,11.0,14.0,76,0.00,,,0.00,meteohub,2013-03-31 01:34:00,
2013-03-30 20:40:00,65.8,58.5,30.02,SSW,199,8.0,15.0,77,0.00,,,0.00,meteohub,2013-03-31 01:40:00,
2013-03-30 20:45:00,65.8,58.5,30.02,SSW,198,10.0,15.0,77,0.00,,,0.00,meteohub,2013-03-31 01:45:00,
2013-03-30 20:50:00,65.7,58.6,30.02,SSW,201,8.0,15.0,78,0.00,,,0.00,meteohub,2013-03-31 01:50:00,
2013-03-30 20:55:00,65.7,58.6,30.02,SSW,197,13.0,15.0,78,0.00,,,0.00,meteohub,2013-03-31 01:55:00,
2013-03-30 21:00:00,65.7,58.6,30.02,SSW,202,8.0,15.0,78,0.00,,,0.00,meteohub,2013-03-31 02:00:00,
2013-03-30 21:05:00,65.7,58.6,30.03,South,183,7.0,14.0,78,0.00,,,0.00,meteohub,2013-03-31 02:05:00,
2013-03-30 21:10:00,65.7,59.0,30.03,SSW,213,8.0,14.0,79,0.00,,,0.00,meteohub,2013-03-31 02:10:00,
2013-03-30 21:15:00,65.7,58.6,30.03,SSW,204,5.0,13.0,78,0.00,,,0.00,meteohub,2013-03-31 02:15:00,
2013-03-30 21:20:00,65.7,59.0,30.03,SSW,197,6.0,12.0,79,0.00,,,0.00,meteohub,2013-03-31 02:20:00,
2013-03-30 21:25:00,65.1,58.5,30.03,SSW,196,6.0,12.0,79,0.00,,,0.00,meteohub,2013-03-31 02:25:00,
2013-03-30 21:30:00,64.9,58.6,30.04,SSW,208,4.0,11.0,80,0.00,,,0.00,meteohub,2013-03-31 02:30:00,
2013-03-30 21:35:00,64.9,58.6,30.04,SSW,204,7.0,11.0,80,0.00,,,0.00,meteohub,2013-03-31 02:35:00,
2013-03-30 21:40:00,64.9,59.0,30.04,SSW,206,7.0,8.0,81,0.00,,,0.00,meteohub,2013-03-31 02:40:00,
2013-03-30 21:45:00,64.9,59.0,30.04,SSW,201,4.0,11.0,81,0.00,,,0.00,meteohub,2013-03-31 02:45:00,
2013-03-30 21:50:00,64.8,58.8,30.04,SSW,198,3.0,11.0,81,0.00,,,0.00,meteohub,2013-03-31 02:50:00,
2013-03-30 21:55:00,64.6,58.6,30.04,SSW,203,4.0,11.0,81,0.00,,,0.00,meteohub,2013-03-31 02:55:00,
2013-03-30 22:00:00,64.6,58.6,30.04,SSW,204,3.0,7.0,81,0.00,,,0.00,meteohub,2013-03-31 03:00:00,
2013-03-30 22:05:00,64.2,58.6,30.04,SSW,194,5.0,8.0,82,0.00,,,0.00,meteohub,2013-03-31 03:05:00,
2013-03-30 22:10:00,64.0,58.5,30.04,South,187,6.0,7.0,82,0.00,,,0.00,meteohub,2013-03-31 03:10:00,
2013-03-30 22:15:00,64.0,58.8,30.04,SSW,195,5.0,8.0,83,0.00,,,0.00,meteohub,2013-03-31 03:15:00,
2013-03-30 22:20:00,63.9,58.6,30.04,SSW,194,4.0,8.0,83,0.00,,,0.00,meteohub,2013-03-31 03:20:00,
2013-03-30 22:25:00,63.9,58.6,30.04,SSW,194,4.0,8.0,83,0.00,,,0.00,meteohub,2013-03-31 03:25:00,
2013-03-30 22:30:00,63.7,58.8,30.04,SSW,196,4.0,7.0,84,0.00,,,0.00,meteohub,2013-03-31 03:30:00,
2013-03-30 22:35:00,63.7,58.8,30.04,SSW,196,4.0,7.0,84,0.00,,,0.00,meteohub,2013-03-31 03:35:00,
2013-03-30 22:40:00,63.7,58.8,30.04,SSW,196,4.0,7.0,84,0.00,,,0.00,meteohub,2013-03-31 03:40:00,
2013-03-30 22:45:00,63.5,58.6,30.04,SSW,194,3.0,6.0,84,0.00,,,0.00,meteohub,2013-03-31 03:45:00,
2013-03-30 22:50:00,63.3,58.5,30.04,SSW,193,6.0,6.0,84,0.00,,,0.00,meteohub,2013-03-31 03:50:00,
2013-03-30 22:55:00,63.3,58.8,30.04,SSW,194,5.0,6.0,85,0.00,,,0.00,meteohub,2013-03-31 03:55:00,
2013-03-30 23:00:00,63.3,58.8,30.04,SSW,195,4.0,6.0,85,0.00,,,0.00,meteohub,2013-03-31 04:00:00,
2013-03-30 23:05:00,63.1,58.8,30.04,SSW,195,4.0,10.0,86,0.00,,,0.00,meteohub,2013-03-31 04:05:00,
2013-03-30 23:10:00,63.1,58.8,30.04,SSW,194,4.0,10.0,86,0.00,,,0.00,meteohub,2013-03-31 04:10:00,
2013-03-30 23:15:00,63.0,58.6,30.04,South,191,2.0,6.0,86,0.00,,,0.00,meteohub,2013-03-31 04:15:00,
2013-03-30 23:20:00,63.0,58.6,30.04,South,191,2.0,6.0,86,0.00,,,0.00,meteohub,2013-03-31 04:20:00,
2013-03-30 23:25:00,62.8,58.8,30.03,South,191,1.0,5.0,87,0.00,,,0.00,meteohub,2013-03-31 04:25:00,
2013-03-30 23:30:00,62.8,58.8,30.03,South,187,5.0,5.0,87,0.00,,,0.00,meteohub,2013-03-31 04:30:00,
2013-03-30 23:35:00,63.0,59.0,30.04,South,181,3.0,7.0,87,0.00,,,0.00,meteohub,2013-03-31 04:35:00,
2013-03-30 23:40:00,63.0,59.0,30.03,South,179,5.0,7.0,87,0.00,,,0.00,meteohub,2013-03-31 04:40:00,
2013-03-30 23:45:00,62.8,58.8,30.04,South,179,4.0,7.0,87,0.00,,,0.00,meteohub,2013-03-31 04:45:00,
2013-03-30 23:50:00,62.6,58.6,30.04,South,179,4.0,7.0,87,0.00,,,0.00,meteohub,2013-03-31 04:50:00,
2013-03-30 23:55:00,62.2,58.3,30.03,South,179,4.0,7.0,87,0.00,,,0.00,meteohub,2013-03-31 04:55:00,